Regional Weather Roundup
Issued by NWS

Home | Current Version | Previous Version | Text Only | Print | Product List | Glossary Off
Versions: 1 2 3 4 5 6 7 8 9 10 11 12 13 14 15 16 17 18 19 20 21 22 23 24 25 26 27 28 29 30 31 32 33 34 35 36 37 38 39 40 41 42 43 44 45 46 47 48 49 50

000
ASUS43 KIND 252109
RWRIN

WEATHER ROUNDUP FOR INDIANA
NATIONAL WEATHER SERVICE INDIANAPOLIS IN
500 PM EDT MON SEP 25 2017

NOTE: "FAIR" INDICATES FEW OR NO CLOUDS BELOW 12,000 FEET WITH NO
SIGNIFICANT WEATHER AND/OR OBSTRUCTIONS TO VISIBILITY.

* - STATION DOES NOT REPORT WEATHER SUCH AS PRECIPITATION OR FOG.

+ - STATION NOT QUALITY CONTROLLED BY THE NATIONAL WEATHER SERVICE.
    USE DATA WITH CAUTION...ESPECIALLY DEWPOINT AND RELATIVE
    HUMIDITY OBSERVATIONS.

INZ001>003-010>013-019-020-252200-
NORTHWEST INDIANA

CITY           SKY/WX    TMP DP  RH WIND       PRES   REMARKS
GARY /AIRPORT/ MOSUNNY   91  48  22 SE6       29.94F
KNOX *+        SUNNY     88  52  29 SE6       29.96F
LA PORTE +     SUNNY     87  54  32 SE5       29.97F
MICHIGAN CITY+ SUNNY     88  55  33 SE7       29.96F
MONTICELLO +   SUNNY     88  53  30 S5        29.95F
RENSSELAER +   MOSUNNY   88  30  12 SW5       29.95F
VALPARAISO     SUNNY     90  54  29 SE8       29.96F

$$

LMZ046-743>745-252200-
SOUTHERN LAKE MICHIGAN

STATION/POSITION TIME  TEMP    WIND        PRES    WAVE
                       AIR SEA DIR/SP/G            HT
                 (UTC) (F)     (DEG/KT/KT) (MB)    (FT)
BURNS HARBOR     2100   89     180/  2/ 13 1014.2
MICHIGAN CITY    2040   86     360/  6/  6   N/A
5NW MICH CITY    2100   80 75   70/  4/  6   N/A     0

$$

INZ004-005-014>016-021>024-252200-
NORTH CENTRAL INDIANA

CITY           SKY/WX    TMP DP  RH WIND       PRES   REMARKS
ELKHART        SUNNY     86  55  35 CALM      29.97F
GOSHEN         SUNNY     87  50  27 S12       29.98F
LOGANSPORT +   SUNNY     88  54  31 SW6       29.97F
PERU/GRISSOM   MOSUNNY   89  57  33 S6        29.96F
SOUTH BEND     SUNNY     87  53  31 S9        29.97F
WARSAW +       SUNNY     86  54  32 CALM      29.99S

$$

INZ006>009-017-018-025>027-252200-
NORTHEAST INDIANA

CITY           SKY/WX    TMP DP  RH WIND       PRES   REMARKS
AUBURN +       SUNNY     88  54  31 CALM      29.99F
FORT WAYNE     MOSUNNY   88  59  37 CALM      29.98F
HUNTINGTON +   SUNNY     86  55  34 CALM      29.97F
KENDALLVILLE + SUNNY     86  57  37 SW5       30.00F

$$

INZ028-029-035-036-043>045-051>053-252200-
WEST CENTRAL INDIANA

CITY           SKY/WX    TMP DP  RH WIND       PRES   REMARKS
CRAWFORDSVL +  SUNNY     86  59  39 CALM      29.95
GREENCASTLE +  SUNNY     88  57  35 SW3       29.97F
LAFAYETTE      SUNNY     87  58  37 NE8       29.94F
TERRE HAUTE    CLOUDY    91  60  35 VRB3      29.94F

$$

INZ030>032-037>040-046>048-054>057-064-065-252200-
CENTRAL INDIANA

CITY           SKY/WX    TMP DP  RH WIND       PRES   REMARKS
CP ATTERBURY + SUNNY     88  57  35 SE5       29.98S
COLUMBUS       MOSUNNY   88  48  25 SE3       29.98F
FRANKFORT +    CLOUDY    91  57  31 W5        29.98F
GREENWOOD *+   SUNNY     92  59  33 CALM      29.98F
INDIANAPOLIS   MOSUNNY   89  57  33 E5        29.97F
-EAGLE CREEK   SUNNY     87  55  33 S6        29.96F
KOKOMO +       SUNNY     88  60  38 S7        29.98F
MT COMFORT *+  SUNNY     90  57  33 CALM      29.99F
SHELBYVILLE    SUNNY     90  56  31 W3        29.97F
ZIONSVILLE +   SUNNY     86  57  37 CALM      29.98F

$$

INZ033-034-041-042-049-050-058-059-252200-
EAST CENTRAL INDIANA

CITY           SKY/WX    TMP DP  RH WIND       PRES   REMARKS
MUNCIE         SUNNY     89  55  31 VRB3      29.98F
RICHMOND +     MOSUNNY   86  61  42 SW3       30.01S

$$

INZ060-061-067>069-081>083-085>088-252200-
SOUTHWEST INDIANA

CITY           SKY/WX    TMP DP  RH WIND       PRES   REMARKS
EVANSVILLE     MOSUNNY   89  64  43 E7        29.94F
HUNTINGBURG +  MOSUNNY   88  66  48 S8        29.95F
WASHINGTON +   SUNNY     90  59  35 S5        29.94F

$$

INZ062-063-066-070>080-084-089>092-252200-
SOUTH CENTRAL AND SOUTHEAST INDIANA

CITY           SKY/WX    TMP DP  RH WIND       PRES   REMARKS
BEDFORD +      MOSUNNY   88  59  37 SE3       29.96F
BLOOMINGTON    PTSUNNY   89  60  37 CALM      29.97F
MADISON *+     MOSUNNY   88  59  37 CALM      30.00F
NORTH VERNON + SUNNY     88  61  40 S5        29.99F
SEYMOUR +      SUNNY     90  63  40 CALM      29.97F

$$




USA.gov is the U.S. government's official web portal to all federal, state and local government web resources and services.